Regional Weather Roundup
Issued by NWS

Home | Current Version | Previous Version | Text Only | Print | Product List | Glossary Off
Versions: 1 2 3 4 5 6 7 8 9 10 11 12 13 14 15 16 17 18 19 20 21 22 23 24 25 26 27

000
ASUS45 KCYS 191610
RWRWY

WYOMING REGIONAL WEATHER ROUNDUP
NATIONAL WEATHER SERVICE CHEYENNE WY
1000 AM MDT SAT APR 19 2014

NOTE:  "FAIR" INDICATES FEW OR NO CLOUDS BELOW 12,000 FEET
WITH NO SIGNIFICANT WEATHER AND/OR OBSTRUCTIONS TO VISIBILITY.

WYZ001-191700-
YELLOWSTONE NATIONAL PARK

CITY           SKY/WX    TMP DP  RH WIND       PRES   REMARKS
LK YELLOWSTONE   N/A     30  17  58 E3        30.09S
W YELLOWSTONE  NOT AVBL

$$
WYZ002>013-054>058-071-098>099-191700-
NORTHERN WYOMING

CITY           SKY/WX    TMP DP  RH WIND       PRES   REMARKS
JACKSON        SUNNY     41  19  42 S5        30.07S
CODY           SUNNY     48  25  40 S5        30.00S
GREYBULL       SUNNY     46  30  53 CALM      30.01S
WORLAND        MOSUNNY   48  31  51 CALM      30.01R
SHERIDAN         N/A     50  25  37 SW14        N/A
BUFFALO        SUNNY     49  14  24 VRB6      30.04F
GILLETTE         N/A     50  14  23 CALM      30.04R
HULETT         FAIR      48  19  32 SW5       30.05
NEWCASTLE      FAIR      52  12  20 N7        30.04

$$
WYZ014>020-022>026-101>103-191700-
CENTRAL WYOMING

CITY           SKY/WX    TMP DP  RH WIND       PRES   REMARKS
BIG PINEY      SUNNY     44  14  29 MISG      30.10S
PINEDALE       SUNNY     43  18  36 CALM      30.10F
DUBOIS         FAIR      46   5  18 N13G24    30.02S
LANDER         MOSUNNY   49  22  34 E3        30.01S
RIVERTON       MOSUNNY   46  20  35 E6        30.03R
CASPER         MOSUNNY   47  31  53 E7        30.04S
DOUGLAS        MOSUNNY   48  25  40 SE5       30.06S

$$
WYZ021-027>030-104>119-191700-
SOUTHERN WYOMING

CITY           SKY/WX    TMP DP  RH WIND       PRES   REMARKS
EVANSTON       PTSUNNY   48  32  53 CALM      30.09S
KEMMERER       PTSUNNY   46  14  27 CALM      30.10S
FORT BRIDGER   PTSUNNY   49  22  34 CALM      30.12R
ROCK SPRINGS   MOSUNNY   51  22  31 W3        30.09S
DIXON          CLOUDY    55  37  51 SE6       30.12S
RAWLINS        PTSUNNY   53  19  26 W9        30.09R
SARATOGA       FAIR      52  28  40 SE6       30.10S
LARAMIE        CLOUDY    47  31  53 SE12      30.09R
CHEYENNE       PTSUNNY   49  36  61 VRB5      30.08R
TORRINGTON     CLOUDY    51  30  44 SE10      30.05S
PINE BLUFFS    PTSUNNY   46  36  66 NE9       30.07R

$$



USA.gov is the U.S. government's official web portal to all federal, state and local government web resources and services.